Location: Asheville, NC
(35.6000°N, 82.5500°W)
Time: 20:05:09
(UTC-04:00)

DOVE 4 - Pass Details

Date: 15 March 2018
Orbit: 590 x 802 km, 97.7° (Epoch: 24 June)

Event Time Altitude Azimuth Distance (km) Brightness Sun altitude
Rises 06:36:42 0° 4° (N) 3,286 ? -13.9°
Reaches altitude 10° 06:39:10 10° 358° (N) 2,334 ? -13.4°
Maximum altitude 06:44:01 43° 288° (WNW) 1,057 ? -12.4°
Drops below altitude 10° 06:48:37 10° 218° (SW) 2,211 ? -11.5°
Sets 06:50:55 0° 211° (SSW) 3,094 ? -11.0°
